Weather in Tisul

Russia / Kemerovo Oblast     55°45′35″N   88°18′41″E
temp.,
°C
wind,
m/s
gust,
m/s
humid.,
%
clouds,
%
prec.,
mm/h
press.,
hPa
HPBL,
m
16 may, sun
sun1601:00+12sw4992100 12.6 1015251
04:00+11w279284 0.6 1015193
07:00+12w2687100 1.0 1015370
10:00+14w1585100 0.3 1014487
13:00+15wnw1485100 0.8 1012482
16:00+10ene3797100 8.3 1011263
19:00+11e2392100 9.1 1012439
22:00+10ene2494100 0.0 1013251
17 may, mon
mon1701:00+9e119485 0.0 101471
04:00+8ene139396 0.0 1013174
07:00+8ne128898 0.0 1014204
10:00+11ene2270100 0.0 1015613
13:00+14n2258100 0.0 10141106
16:00+14nnw346098 0.0 10141181
19:00+12n126964 0.0 1015300
22:00+10ssw1173100 0.0 101410
18 may, tue
tue1801:00+10s2279100 0.0 101234
04:00+10s2588100 0.4 1011232
07:00+12s1687100 0.4 1008390
10:00+12wsw2695100 2.6 1005490
13:00+12w2796100 10.8 1003445
16:00+12se1198100 2.9 100374
19:00+12e3494100 4.8 1001300
22:00+10ene369795 8.3 1000298
19 may, wed
wed1901:00+8n3796100 9.1 1003477
04:00+7n3696100 0.4 1005521
07:00+5n5695100 4.4 1007739
10:00+7n3478100 1.6 1008816
13:00+9n5656100 1.6 10081425
16:00+10nnw6643100 0.0 10082039
19:00+9nnw575174 0.0 10091422
22:00+5nnw41157100 0.0 1011406
20 may, thu
thu2001:00+2wnw246913 0.0 101292
04:000w237552 0.0 101348
07:00+2wnw2462100 0.0 1013291
10:00+4nw5749100 0.1 10141885
13:00+5nw6742100 0.3 10142509
16:00+6nw6739100 0.0 10142513
19:00+6nw6953100 0.1 10151796
22:00+2nw6129393 0.6 1017860